Voltar ao catálogo

COSMOS 2251 DEB

AtivoLEO
NORAD 38197·DEBRIS·🇷🇺 Russia

Lançado Jun 16, 1993 de Plesetsk Cosmodrome

Loading…

Próximas Passagens (próximas 24 horas)

TLE

AtualizadoSource: Space-Track

Época: Sep 14, 2026, 02:55 UTC

1 38197U 93036BSM 26257.12216445  .00023771  00000-0  25443-2 0  9996
2 38197  73.9349 171.4880 0098675 339.9373  19.7936 14.85070241898288

Acompanhe COSMOS 2251 DEB em tempo real com AllMySat

Download on the App Store